Flag for Canada Weather past 2 weeks in Fort Smith, Northwest Territories, Canada

Now
21 °F

Passing clouds.


Feels Like: 15 °F
Forecast: 1 / 13 °F
Wind: 5 mph from Southeast

Location: Fort Smith

Current Time: Mar 5, 2015 at 11:29:57 PM

Latest Report: Mar 5, 2015 at 11:00 PM


Visibility: 15 mi

Pressure: 29.77 "Hg

Humidity: 68%

Dew point: 12 °F

Location of Fort SmithLocation

Historic Weather in Fort Smith — Graph

°F

Fort Smith temperature yesterday

Maximum temperature yesterday: 10 °F (at 3:00 PM)
Minimum temperature yesterday: -24 °F (at 12:00 AM)
Average temperature yesterday: -6 °F

Past Weeks' High & Low Weather Summary

 TemperatureHumidityPressure
High25 °F (Mar 5, 4:00 PM)93% (Feb 27, 11:00 PM)30.85 "Hg (Feb 27, 11:00 PM)
Low-31 °F (Feb 21, 7:00 AM)40% (Mar 4, 3:00 PM)29.77 "Hg (Mar 1, 5:00 PM)
Average0 °F71%30.28 "Hg
* Reported Feb 18 10:00 PM — Mar 5 10:00 PM, Fort Smith, Weather by CustomWeather, © 2015

Note: Actual official high and low records may vary slightly from our data, if they occured in-between our weather recording intervals... More about our weather records

Advertising

Fort Smith weather history for previous 24 hours

 ConditionsComfort  
Time TempWeatherWind HumidityBarometerVisibility
10:00 PM
Thu, Mar 5
21 °FPassing clouds.6 mph68%29.78 "Hg15 mi
9:00 PM23 °FPartly cloudy.3 mph63%29.80 "Hg15 mi
8:00 PM21 °FPartly cloudy.3 mph68%29.82 "Hg15 mi
7:00 PM19 °FPartly cloudy.2 mph68%29.83 "Hg15 mi
6:00 PM23 °FBroken clouds.3 mph63%29.84 "Hg15 mi
5:00 PM25 °FBroken clouds.3 mph59%29.85 "Hg15 mi
4:00 PM25 °FBroken clouds.3 mph54%29.87 "Hg15 mi
3:00 PM23 °FPartly sunny.3 mph58%29.87 "Hg15 mi
2:00 PM21 °FPartly sunny.No wind63%29.89 "Hg15 mi
1:00 PM19 °FPartly sunny.3 mph63%29.90 "Hg15 mi
12:00 PM18 °FPartly sunny.7 mph68%29.90 "Hg15 mi
11:00 AM16 °FPartly sunny.8 mph67%29.90 "Hg15 mi
10:00 AM12 °FBroken clouds.9 mph73%29.91 "Hg15 mi
9:00 AM9 °FBroken clouds.9 mph78%29.89 "Hg15 mi
8:00 AM7 °FPartly sunny.6 mph78%29.86 "Hg15 mi
7:00 AM7 °FPassing clouds.10 mph78%29.85 "Hg15 mi
6:00 AM9 °FPassing clouds.9 mph78%29.83 "Hg15 mi
5:00 AM7 °FOvercast.8 mph78%29.81 "Hg15 mi
4:00 AM3 °FOvercast.3 mph72%29.80 "Hg15 mi
3:46 AM1 °FOvercast.2 mph71%29.80 "Hg15 mi
3:00 AM0 °FLight snow. Overcast.3 mph71%29.80 "Hg6 mi
2:00 AM-2 °FLight snow. Overcast.2 mph65%29.80 "Hg8 mi
1:00 AM-4 °FPassing clouds.3 mph65%29.82 "Hg15 mi
12:00 AM-2 °FPassing clouds.5 mph65%29.83 "Hg15 mi
11:00 PM
Wed, Mar 4
-2 °FPassing clouds.2 mph59%29.84 "Hg15 mi
Weather by CustomWeather, © 2015

See weather overviewHow to use our weather pages